Location: Philipsburg
(46.3359°N, 113.2993°W)
Time: 15:04:49
(UTC+00:00)

ISS - Visible Passes

Search period start: 24 January 2022 00:00
Search period end: 03 February 2022 00:00
Orbit: 413 x 422 km, 51.6° (Epoch: 24 January)

Date Brightness Start Highest point End Pass type
(mag) Time Alt. Az. Time Alt. Az. Time Alt. Az.
24 Jan -3.2 01:46:51 10° W 01:50:05 48° NNW 01:51:34 27° NE visible
24 Jan -0.4 03:24:17 10° WNW 03:24:30 11° WNW 03:24:30 11° WNW visible
25 Jan -3.6 00:58:42 10° WSW 01:02:01 66° NNW 01:05:21 10° ENE visible
25 Jan -2.1 02:36:07 10° WNW 02:38:27 28° NNW 02:38:27 28° NNW visible
26 Jan -2.7 01:47:55 10° WNW 01:51:01 34° N 01:52:24 24° NE visible
26 Jan -0.4 03:25:09 10° WNW 03:25:19 11° WNW 03:25:19 11° WNW visible
27 Jan -2.9 00:59:41 10° W 01:02:51 39° NNW 01:06:02 10° ENE visible
27 Jan -2.1 02:37:04 10° WNW 02:39:15 28° NNW 02:39:15 28° NNW visible
28 Jan -2.6 01:48:55 10° WNW 01:51:57 31° N 01:53:11 24° NE visible
28 Jan -0.5 03:25:49 10° WNW 03:26:07 12° WNW 03:26:07 12° WNW visible
29 Jan -2.6 01:00:42 10° WNW 01:03:45 32° N 01:06:48 10° ENE visible
29 Jan -2.5 02:37:46 10° WNW 02:40:04 34° NNW 02:40:04 34° NNW visible
30 Jan -2.9 01:49:41 10° WNW 01:52:49 36° N 01:54:03 26° ENE visible
30 Jan -0.6 03:26:26 10° WNW 03:27:00 14° WNW 03:27:00 14° WNW visible
31 Jan -3.2 02:38:21 10° WNW 02:41:02 53° NW 02:41:02 53° NW visible
01 Feb -3.6 01:50:16 10° WNW 01:53:34 56° NNE 01:55:09 27° E visible
01 Feb -0.7 03:27:15 10° W 03:28:06 16° W 03:28:06 16° W visible
02 Feb -3.0 02:38:58 10° WNW 02:42:12 46° SW 02:42:19 46° SSW visible
